This is the latest recevied weather packets stored in our database for station/object DG1GMY-13. If no packets are shown the sender has not sent any weather packets the latest 10 day(s).
| Time | Temp. | Humidity | Pressure | Rain* | Wind** | Luminosity | Snow |
|---|---|---|---|---|---|---|---|
| 1787661519 | 18.89° C | 78% | 1014.4 hPa | - | - | - | - |
| 1787659713 | 19.44° C | 78% | 1014.5 hPa | - | - | - | - |
| 1787657907 | 18.89° C | 81% | 1014.4 hPa | - | - | - | - |
| 1787656101 | 18.33° C | 86% | 1014.5 hPa | - | - | - | - |
| 1787654295 | 17.78° C | 87% | 1014.8 hPa | - | - | - | - |
| 1787652489 | 17.78° C | 89% | 1014.8 hPa | - | - | - | - |
| 1787650683 | 17.22° C | 89% | 1014.4 hPa | - | - | - | - |
| 1787648877 | 17.22° C | 86% | 1014.4 hPa | - | - | - | - |
| 1787647071 | 17.78° C | 85% | 1014.5 hPa | - | - | - | - |
| 1787645265 | 17.22° C | 82% | 1014.2 hPa | - | - | - | - |
| 1787643459 | 17.22° C | 77% | 1014.1 hPa | - | - | - | - |
| 1787641653 | 17.22° C | 74% | 1013.7 hPa | - | - | - | - |
| 1787639847 | 17.22° C | 75% | 1013.5 hPa | - | - | - | - |
| 1787638041 | 17.22° C | 75% | 1013.4 hPa | - | - | - | - |
| 1787636235 | 16.67° C | 76% | 1013.3 hPa | - | - | - | - |
| 1787634429 | 16.67° C | 75% | 1012.8 hPa | - | - | - | - |
| 1787632623 | 16.67° C | 77% | 1012.5 hPa | - | - | - | - |
| 1787630818 | 16.67° C | 77% | 1012.3 hPa | - | - | - | - |
| 1787629012 | 16.67° C | 84% | 1012.1 hPa | - | - | - | - |
| 1787627207 | 14.44° C | 88% | 1011.2 hPa | - | - | - | - |
| 1787625400 | 14.44° C | 92% | 1011 hPa | - | - | - | - |
| 1787623593 | 15° C | 89% | 1010.5 hPa | - | - | - | - |
| 1787621787 | 15° C | 86% | 1011.1 hPa | - | - | - | - |
| 1787619981 | 14.44° C | 90% | 1011.6 hPa | - | - | - | - |
| 1787618175 | 14.44° C | 100% | 1012.4 hPa | - | - | - | - |
* Rain since midnight (hover to see other rain measurements)
** Current wind speed in m/s (hover to see current wind gust speed)